OBJECT AZ, 43805

Orbit data source: Space-Track

You're viewing an Uncataloged Satellite

Recently launched and/or uncataloged satellites may have evolving metadata. Metadata may include but not limited to: Owner, Maufacturer, Bus, Motor, and Mission.

OBJECT AZ, 43805 is a satellite in SSO that was launched on Mon, 03 Dec 2018 UTC via an FALCON 9 launch vehicle from the Air Force Western Test Range (AFWTR). Unknown objects in Earth's orbit typically refer to objects detected orbiting the Earth but have not yet been identified or cataloged. These objects could be anything from previously untracked satellites, spent rocket stages, debris from satellite collisions, or even natural meteoroids temporarily captured by Earth's gravity.

Not visible in the next 10 days
Identifier
43805, 2018-099AZ
Orbit
SSO
Country
Flag of TBDTBD
Related business
Flag of KZAl-Farabi Kazakh National University (KZ)
Manufacturer
Al-Farabi KNU
Mission
Operational Amateur Technology
Bus & Motor
CUBESAT 3U, Unknown motor
Mass
4 kg wet, 4 kg dry
Launch date (UTC)
2018-12-03 (7 years ago)
Launch vehicle
FALCON 9
Launch site
Air Force Western Test Range (AFWTR)
Object type
Unknown
Shape & HBR
Box, 0.1 m
Radar Cross Section
0.035 m², Small (<0.1 m²)

Expand to show TLE details & history
Last TLE update: 16 hours ago

TLE from 16 hours ago
0 OBJECT AZ
1 43805U 18099AZ  26124.76618022  .01972431  38083-2  17783-2 0  9993
2 43805  97.3881 204.9680 0011938 265.1047  94.8876 16.13521034408228
Epoch: 2026-05-04T18:23Z
TLE epoch observation values (Epoch: 2026-05-04T18:23:17.971Z)
Latitude
0.00006°
Longitude
66.49244°
Altitude
241.101 km
Speed
7.762 km/s
True Right ascension
13h 39m 52s
True Declination
0° 00' 00"
Sunlit
Object was in full shadow at epoch
Visualization orbit readout
Latitude
Unknown
Longitude
Unknown
Altitude
Unknown
Speed
Unknown
Apparent Right ascension
Unknown
Apparent Declination
Unknown
Sunlit
N/A
Visualization observer readout
Local Sidereal Time
18:08:03
Azimuth
Unknown
Elevation
Unknown
Doppler factor
Unknown
Orbital elements
Apogee altitude
241.937 km
Perigee altitude
226.15 km
Semi-major axis
6,612.18 km
Eccentricity
0.00119
Inclination
97.3881°
RAAN
204.968°
Arg. of periapsis
265.1047°
True anomaly
95.02388°
Mean anomaly
94.8876°
Eccentric anomaly
94.95574°
Mean motion
4.0367 °/min
Orbital period
89.18 mins
BSTAR
0.0017783
Loading maneuver chart data...
Computing Atmospheric mass density...
Loading historical data...
Loading historical data...
Loading historical data...
Loading historical data...
Loading historical data...
Loading historical data...
Loading historical data...

Documentation

Showing up to 5 results
|